contact:dominique.lefevre@mio.osupytheas.fr, maurice.libes@osupytheas.fr, didier.mallarino@osupytheas.fr
Project:EMSO http://www.emso-fr.org/EMSO-France
Depth: 2436.0 m
Title:EMSO Ligure Ouest : Data MII capteur CSTAR
DateTime,Latitude,Longitude,Instrument_Serial,Reference_Counts,Signal_Counts,Corrected_Signal_raw_counts,Calculated_Beam_c_inverse_meters,Internal_thermistor_counts
DateTime,Latitude,Longitude,Instrument_Serial,Reference_Counts,Signal_Counts,Corrected_Signal_raw_counts,Calculated_Beam_c_inverse_meters,Internal_thermistor_counts
2019-06-13T00:00:08,42.805,6.029,CST-1368DR,9080,12707,15536,0.021,551
2019-06-13T00:03:09,42.805,6.029,CST-1368DR,9080,12707,15536,0.021,551
2019-06-13T00:06:11,42.805,6.029,CST-1368DR,9080,12707,15536,0.021,551
2019-06-13T00:09:12,42.805,6.029,CST-1368DR,9080,12707,15536,0.021,550
2019-06-13T00:12:14,42.805,6.029,CST-1368DR,9080,12706,15536,0.021,551
2019-06-13T00:15:15,42.805,6.029,CST-1368DR,9080,12707,15537,0.020,551
2019-06-13T00:18:16,42.805,6.029,CST-1368DR,9080,12708,15538,0.020,551
2019-06-13T00:21:18,42.805,6.029,CST-1368DR,9080,12705,15534,0.021,551
2019-06-13T00:24:19,42.805,6.029,CST-1368DR,9080,12707,15537,0.020,551
2019-06-13T00:27:21,42.805,6.029,CST-1368DR,9080,12707,15537,0.020,551
2019-06-13T00:30:22,42.805,6.029,CST-1368DR,9080,12706,15536,0.021,551
2019-06-13T00:33:24,42.805,6.029,CST-1368DR,9080,12706,15536,0.021,551
2019-06-13T00:36:25,42.805,6.029,CST-1368DR,9080,12706,15535,0.021,551
2019-06-13T00:39:26,42.805,6.029,CST-1368DR,9079,12705,15537,0.020,551
2019-06-13T00:42:28,42.805,6.029,CST-1368DR,9079,12705,15536,0.021,551
2019-06-13T00:45:29,42.805,6.029,CST-1368DR,9079,12705,15537,0.020,550
2019-06-13T00:48:31,42.805,6.029,CST-1368DR,9079,12707,15538,0.020,551
2019-06-13T00:51:32,42.805,6.029,CST-1368DR,9079,12706,15537,0.020,550
2019-06-13T00:54:33,42.805,6.029,CST-1368DR,9079,12706,15537,0.020,551
2019-06-13T00:57:35,42.805,6.029,CST-1368DR,9079,12705,15536,0.021,551
2019-06-13T01:00:36,42.805,6.029,CST-1368DR,9079,12706,15537,0.020,551
2019-06-13T01:03:38,42.805,6.029,CST-1368DR,9079,12706,15537,0.020,551
2019-06-13T01:06:39,42.805,6.029,CST-1368DR,9079,12701,15532,0.022,551
2019-06-13T01:09:40,42.805,6.029,CST-1368DR,9079,12706,15537,0.020,551
2019-06-13T01:12:42,42.805,6.029,CST-1368DR,9079,12706,15537,0.020,551
2019-06-13T01:15:43,42.805,6.029,CST-1368DR,9079,12705,15537,0.020,551
2019-06-13T01:18:45,42.805,6.029,CST-1368DR,9079,12707,15538,0.020,551
2019-06-13T01:21:46,42.805,6.029,CST-1368DR,9079,12706,15537,0.020,550
2019-06-13T01:24:47,42.805,6.029,CST-1368DR,9079,12705,15536,0.021,551
2019-06-13T01:27:49,42.805,6.029,CST-1368DR,9079,12704,15535,0.021,551
2019-06-13T01:30:50,42.805,6.029,CST-1368DR,9079,12703,15534,0.021,551
2019-06-13T01:33:52,42.805,6.029,CST-1368DR,9079,12705,15536,0.021,551
2019-06-13T01:36:53,42.805,6.029,CST-1368DR,9079,12707,15538,0.020,551
2019-06-13T01:39:55,42.805,6.029,CST-1368DR,9079,12705,15536,0.021,551
2019-06-13T01:42:56,42.805,6.029,CST-1368DR,9079,12707,15538,0.020,551
2019-06-13T01:45:57,42.805,6.029,CST-1368DR,9079,12706,15537,0.020,551
2019-06-13T01:48:59,42.805,6.029,CST-1368DR,9079,12706,15537,0.020,551
2019-06-13T01:52:00,42.805,6.029,CST-1368DR,9079,12707,15538,0.020,550
2019-06-13T01:55:02,42.805,6.029,CST-1368DR,9079,12704,15535,0.021,551
2019-06-13T01:58:03,42.805,6.029,CST-1368DR,9079,12704,15535,0.021,551
2019-06-13T02:01:04,42.805,6.029,CST-1368DR,9079,12706,15537,0.020,551
2019-06-13T02:04:06,42.805,6.029,CST-1368DR,9079,12706,15537,0.020,551
2019-06-13T02:07:07,42.805,6.029,CST-1368DR,9079,12706,15537,0.020,551
2019-06-13T02:10:09,42.805,6.029,CST-1368DR,9078,12706,15538,0.020,551
2019-06-13T02:13:10,42.805,6.029,CST-1368DR,9078,12706,15538,0.020,551
2019-06-13T02:16:11,42.805,6.029,CST-1368DR,9078,12705,15537,0.020,551
2019-06-13T02:19:13,42.805,6.029,CST-1368DR,9078,12706,15538,0.020,551
2019-06-13T02:22:14,42.805,6.029,CST-1368DR,9078,12706,15538,0.020,551
2019-06-13T02:25:16,42.805,6.029,CST-1368DR,9078,12702,15534,0.021,551
2019-06-13T02:28:17,42.805,6.029,CST-1368DR,9078,12704,15537,0.020,551
2019-06-13T02:31:18,42.805,6.029,CST-1368DR,9078,12705,15538,0.020,551
2019-06-13T02:34:20,42.805,6.029,CST-1368DR,9078,12705,15538,0.020,551
2019-06-13T02:37:21,42.805,6.029,CST-1368DR,9078,12705,15537,0.020,551
2019-06-13T02:40:23,42.805,6.029,CST-1368DR,9078,12706,15538,0.020,551
2019-06-13T02:43:24,42.805,6.029,CST-1368DR,9078,12706,15538,0.020,551
2019-06-13T02:46:26,42.805,6.029,CST-1368DR,9078,12705,15538,0.020,551
2019-06-13T02:49:27,42.805,6.029,CST-1368DR,9078,12705,15538,0.020,551
2019-06-13T02:52:28,42.805,6.029,CST-1368DR,9078,12706,15539,0.020,551
2019-06-13T02:55:30,42.805,6.029,CST-1368DR,9078,12705,15537,0.020,550
2019-06-13T02:58:31,42.805,6.029,CST-1368DR,9078,12704,15537,0.020,551
2019-06-13T03:01:33,42.805,6.029,CST-1368DR,9078,12704,15537,0.020,551
2019-06-13T03:04:34,42.805,6.029,CST-1368DR,9078,12704,15537,0.020,551
2019-06-13T03:07:35,42.805,6.029,CST-1368DR,9078,12705,15537,0.020,551
2019-06-13T03:10:37,42.805,6.029,CST-1368DR,9078,12703,15535,0.021,551
2019-06-13T03:13:38,42.805,6.029,CST-1368DR,9078,12702,15534,0.021,551
2019-06-13T03:16:40,42.805,6.029,CST-1368DR,9078,12705,15537,0.020,551
2019-06-13T03:19:41,42.805,6.029,CST-1368DR,9078,12697,15528,0.023,551
2019-06-13T03:22:42,42.805,6.029,CST-1368DR,9078,12705,15537,0.020,551
2019-06-13T03:25:44,42.805,6.029,CST-1368DR,9078,12702,15534,0.021,551
2019-06-13T03:28:45,42.805,6.029,CST-1368DR,9078,12703,15536,0.021,551
2019-06-13T03:31:47,42.805,6.029,CST-1368DR,9078,12704,15536,0.021,551
2019-06-13T03:34:48,42.805,6.029,CST-1368DR,9078,12704,15537,0.020,551
2019-06-13T03:37:50,42.805,6.029,CST-1368DR,9077,12705,15539,0.020,550
2019-06-13T03:40:51,42.805,6.029,CST-1368DR,9077,12703,15537,0.020,551
2019-06-13T03:43:52,42.805,6.029,CST-1368DR,9077,12705,15539,0.020,551
2019-06-13T03:46:54,42.805,6.029,CST-1368DR,9077,12703,15537,0.020,551
2019-06-13T03:49:55,42.805,6.029,CST-1368DR,9077,12704,15538,0.020,551
2019-06-13T03:52:57,42.805,6.029,CST-1368DR,9077,12704,15538,0.020,551
2019-06-13T03:55:58,42.805,6.029,CST-1368DR,9077,12703,15537,0.020,550
2019-06-13T03:58:59,42.805,6.029,CST-1368DR,9077,12704,15538,0.020,550
2019-06-13T04:02:01,42.805,6.029,CST-1368DR,9077,12703,15537,0.020,551
2019-06-13T04:05:02,42.805,6.029,CST-1368DR,9077,12704,15538,0.020,551
2019-06-13T04:08:04,42.805,6.029,CST-1368DR,9077,12702,15536,0.021,551
2019-06-13T04:11:05,42.805,6.029,CST-1368DR,9077,12704,15538,0.020,551
2019-06-13T04:14:06,42.805,6.029,CST-1368DR,9077,12702,15535,0.021,551
2019-06-13T04:17:08,42.805,6.029,CST-1368DR,9077,12703,15536,0.021,551
2019-06-13T04:20:09,42.805,6.029,CST-1368DR,9077,12702,15536,0.021,551
2019-06-13T04:23:11,42.805,6.029,CST-1368DR,9077,12703,15537,0.020,551
2019-06-13T04:26:12,42.805,6.029,CST-1368DR,9077,12704,15538,0.020,551
2019-06-13T04:29:13,42.805,6.029,CST-1368DR,9077,12702,15535,0.021,551
2019-06-13T04:32:15,42.805,6.029,CST-1368DR,9077,12703,15536,0.021,551
2019-06-13T04:35:16,42.805,6.029,CST-1368DR,9077,12696,15528,0.023,551
2019-06-13T04:38:18,42.805,6.029,CST-1368DR,9077,12703,15537,0.020,551
2019-06-13T04:41:19,42.805,6.029,CST-1368DR,9077,12703,15537,0.020,551
2019-06-13T04:44:21,42.805,6.029,CST-1368DR,9077,12703,15537,0.020,551
2019-06-13T04:47:22,42.805,6.029,CST-1368DR,9077,12702,15535,0.021,551
2019-06-13T04:50:23,42.805,6.029,CST-1368DR,9077,12701,15534,0.021,551
2019-06-13T04:53:25,42.805,6.029,CST-1368DR,9077,12702,15536,0.021,551
2019-06-13T04:56:26,42.805,6.029,CST-1368DR,9077,12704,15538,0.020,550
2019-06-13T04:59:28,42.805,6.029,CST-1368DR,9077,12703,15537,0.020,551
2019-06-13T05:02:29,42.805,6.029,CST-1368DR,9077,12702,15535,0.021,551
2019-06-13T05:05:30,42.805,6.029,CST-1368DR,9077,12703,15537,0.020,551
2019-06-13T05:08:32,42.805,6.029,CST-1368DR,9077,12703,15537,0.020,550
2019-06-13T05:11:33,42.805,6.029,CST-1368DR,9077,12702,15536,0.021,551
2019-06-13T05:14:35,42.805,6.029,CST-1368DR,9077,12702,15536,0.021,551
2019-06-13T05:17:36,42.805,6.029,CST-1368DR,9077,12700,15533,0.021,551
2019-06-13T05:20:37,42.805,6.029,CST-1368DR,9077,12703,15537,0.020,550
2019-06-13T05:23:39,42.805,6.029,CST-1368DR,9077,12702,15536,0.021,551
2019-06-13T05:26:40,42.805,6.029,CST-1368DR,9077,12696,15528,0.023,551
2019-06-13T05:29:42,42.805,6.029,CST-1368DR,9077,12703,15537,0.020,551
2019-06-13T05:32:43,42.805,6.029,CST-1368DR,9076,12703,15538,0.020,551
2019-06-13T05:35:44,42.805,6.029,CST-1368DR,9076,12703,15539,0.020,551
2019-06-13T05:38:46,42.805,6.029,CST-1368DR,9076,12702,15538,0.020,551
2019-06-13T05:41:47,42.805,6.029,CST-1368DR,9076,12702,15538,0.020,551
2019-06-13T05:44:49,42.805,6.029,CST-1368DR,9076,12701,15536,0.021,551
2019-06-13T05:47:50,42.805,6.029,CST-1368DR,9076,12702,15537,0.020,551
2019-06-13T05:50:52,42.805,6.029,CST-1368DR,9076,12702,15538,0.020,551
2019-06-13T05:53:53,42.805,6.029,CST-1368DR,9076,12700,15535,0.021,550
2019-06-13T05:56:54,42.805,6.029,CST-1368DR,9076,12702,15537,0.020,551
2019-06-13T05:59:56,42.805,6.029,CST-1368DR,9076,12702,15537,0.020,551
2019-06-13T06:02:57,42.805,6.029,CST-1368DR,9076,12701,15536,0.021,551
2019-06-13T06:05:59,42.805,6.029,CST-1368DR,9076,12702,15537,0.020,550
2019-06-13T06:09:00,42.805,6.029,CST-1368DR,9076,12703,15538,0.020,551
2019-06-13T06:12:01,42.805,6.029,CST-1368DR,9076,12703,15538,0.020,551
2019-06-13T06:15:03,42.805,6.029,CST-1368DR,9076,12702,15537,0.020,551
2019-06-13T06:18:04,42.805,6.029,CST-1368DR,9076,12702,15537,0.020,551
2019-06-13T06:21:06,42.805,6.029,CST-1368DR,9076,12701,15536,0.021,551
2019-06-13T06:24:07,42.805,6.029,CST-1368DR,9076,12703,15538,0.020,551
2019-06-13T06:27:08,42.805,6.029,CST-1368DR,9076,12702,15537,0.020,551
2019-06-13T06:30:10,42.805,6.029,CST-1368DR,9076,12702,15538,0.020,551
2019-06-13T06:33:11,42.805,6.029,CST-1368DR,9076,12701,15536,0.021,551
2019-06-13T06:36:13,42.805,6.029,CST-1368DR,9076,12698,15533,0.021,551
2019-06-13T06:39:14,42.805,6.029,CST-1368DR,9076,12701,15536,0.021,551
2019-06-13T06:42:15,42.805,6.029,CST-1368DR,9076,12702,15537,0.020,551
2019-06-13T06:45:17,42.805,6.029,CST-1368DR,9076,12703,15538,0.020,551
2019-06-13T06:48:18,42.805,6.029,CST-1368DR,9076,12700,15535,0.021,551
2019-06-13T06:51:20,42.805,6.029,CST-1368DR,9076,12702,15537,0.020,551
2019-06-13T06:54:21,42.805,6.029,CST-1368DR,9075,12699,15535,0.021,551
2019-06-13T06:57:23,42.805,6.029,CST-1368DR,9075,12701,15538,0.020,551
2019-06-13T07:00:24,42.805,6.029,CST-1368DR,9075,12702,15538,0.020,550
2019-06-13T07:03:25,42.805,6.029,CST-1368DR,9075,12701,15537,0.020,551
2019-06-13T07:06:27,42.805,6.029,CST-1368DR,9075,12700,15536,0.021,551
2019-06-13T07:09:28,42.805,6.029,CST-1368DR,9075,12701,15538,0.020,551
2019-06-13T07:12:30,42.805,6.029,CST-1368DR,9075,12698,15534,0.021,551
2019-06-13T07:15:31,42.805,6.029,CST-1368DR,9075,12700,15537,0.020,551
2019-06-13T07:18:32,42.805,6.029,CST-1368DR,9075,12700,15537,0.020,551
2019-06-13T07:21:34,42.805,6.029,CST-1368DR,9075,12701,15537,0.020,550
2019-06-13T07:24:35,42.805,6.029,CST-1368DR,9075,12700,15537,0.020,551
2019-06-13T07:27:37,42.805,6.029,CST-1368DR,9075,12700,15537,0.020,551
2019-06-13T07:30:38,42.805,6.029,CST-1368DR,9075,12700,15537,0.020,551
2019-06-13T07:33:39,42.805,6.029,CST-1368DR,9075,12701,15538,0.020,551
2019-06-13T07:36:41,42.805,6.029,CST-1368DR,9075,12701,15538,0.020,551
2019-06-13T07:39:42,42.805,6.029,CST-1368DR,9075,12701,15538,0.020,551
2019-06-13T07:42:44,42.805,6.029,CST-1368DR,9075,12700,15537,0.020,551
2019-06-13T07:45:45,42.805,6.029,CST-1368DR,9075,12701,15538,0.020,551
2019-06-13T07:48:47,42.805,6.029,CST-1368DR,9075,12701,15537,0.020,550
2019-06-13T07:51:48,42.805,6.029,CST-1368DR,9075,12696,15532,0.022,551
2019-06-13T07:54:49,42.805,6.029,CST-1368DR,9075,12700,15537,0.020,551
2019-06-13T07:57:51,42.805,6.029,CST-1368DR,9075,12701,15538,0.020,550
2019-06-13T08:00:52,42.805,6.029,CST-1368DR,9075,12699,15535,0.021,551
2019-06-13T08:03:54,42.805,6.029,CST-1368DR,9075,12699,15535,0.021,551
2019-06-13T08:06:55,42.805,6.029,CST-1368DR,9075,12700,15537,0.020,551
2019-06-13T08:09:56,42.805,6.029,CST-1368DR,9075,12701,15537,0.020,551
2019-06-13T08:12:58,42.805,6.029,CST-1368DR,9075,12700,15536,0.021,551
2019-06-13T08:15:59,42.805,6.029,CST-1368DR,9075,12699,15535,0.021,551
2019-06-13T08:19:01,42.805,6.029,CST-1368DR,9074,12700,15538,0.020,551
2019-06-13T08:22:02,42.805,6.029,CST-1368DR,9074,12699,15536,0.021,551
2019-06-13T08:25:03,42.805,6.029,CST-1368DR,9075,12699,15535,0.021,551
2019-06-13T08:28:05,42.805,6.029,CST-1368DR,9074,12700,15538,0.020,551
2019-06-13T08:31:06,42.805,6.029,CST-1368DR,9074,12700,15538,0.020,551
2019-06-13T08:34:08,42.805,6.029,CST-1368DR,9074,12699,15537,0.020,551
2019-06-13T08:37:09,42.805,6.029,CST-1368DR,9074,12699,15537,0.020,551
2019-06-13T08:40:10,42.805,6.029,CST-1368DR,9074,12700,15538,0.020,551
2019-06-13T08:43:12,42.805,6.029,CST-1368DR,9074,12699,15536,0.021,551
2019-06-13T08:46:13,42.805,6.029,CST-1368DR,9074,12699,15536,0.021,551
2019-06-13T08:49:15,42.805,6.029,CST-1368DR,9074,12698,15535,0.021,551
2019-06-13T08:52:16,42.805,6.029,CST-1368DR,9074,12699,15537,0.020,551
2019-06-13T08:55:18,42.805,6.029,CST-1368DR,9074,12699,15536,0.021,551
2019-06-13T08:58:19,42.805,6.029,CST-1368DR,9074,12699,15537,0.020,550
2019-06-13T09:01:20,42.805,6.029,CST-1368DR,9074,12698,15536,0.021,551
2019-06-13T09:04:22,42.805,6.029,CST-1368DR,9074,12699,15536,0.021,551
2019-06-13T09:07:23,42.805,6.029,CST-1368DR,9074,12699,15537,0.020,550
2019-06-13T09:10:25,42.805,6.029,CST-1368DR,9074,12699,15536,0.021,551
2019-06-13T09:13:26,42.805,6.029,CST-1368DR,9074,12698,15536,0.021,551
2019-06-13T09:16:27,42.805,6.029,CST-1368DR,9074,12699,15537,0.020,551
2019-06-13T09:19:29,42.805,6.029,CST-1368DR,9074,12699,15536,0.021,551
2019-06-13T09:22:30,42.805,6.029,CST-1368DR,9074,12697,15534,0.021,551
2019-06-13T09:25:32,42.805,6.029,CST-1368DR,9074,12699,15536,0.021,551
2019-06-13T09:28:33,42.805,6.029,CST-1368DR,9074,12698,15536,0.021,551
2019-06-13T09:31:34,42.805,6.029,CST-1368DR,9074,12698,15536,0.021,551
2019-06-13T09:34:36,42.805,6.029,CST-1368DR,9074,12698,15535,0.021,551
2019-06-13T09:37:37,42.805,6.029,CST-1368DR,9074,12699,15536,0.021,551
2019-06-13T09:40:39,42.805,6.029,CST-1368DR,9074,12699,15536,0.021,551
2019-06-13T09:43:40,42.805,6.029,CST-1368DR,9074,12697,15534,0.021,551
2019-06-13T09:46:41,42.805,6.029,CST-1368DR,9074,12697,15534,0.021,551
2019-06-13T09:49:43,42.805,6.029,CST-1368DR,9074,12697,15534,0.021,551
2019-06-13T09:52:44,42.805,6.029,CST-1368DR,9074,12699,15536,0.021,551
2019-06-13T09:55:46,42.805,6.029,CST-1368DR,9073,12698,15537,0.020,551
2019-06-13T09:58:47,42.805,6.029,CST-1368DR,9074,12698,15536,0.021,551
2019-06-13T10:01:49,42.805,6.029,CST-1368DR,9074,12698,15535,0.021,551
2019-06-13T10:04:50,42.805,6.029,CST-1368DR,9073,12695,15534,0.021,551
2019-06-13T10:07:51,42.805,6.029,CST-1368DR,9073,12698,15537,0.020,551
2019-06-13T10:10:53,42.805,6.029,CST-1368DR,9073,12698,15537,0.020,551
2019-06-13T10:13:54,42.805,6.029,CST-1368DR,9073,12695,15533,0.021,551
2019-06-13T10:16:56,42.805,6.029,CST-1368DR,9073,12698,15537,0.020,551
2019-06-13T10:19:57,42.805,6.029,CST-1368DR,9073,12697,15536,0.021,551
2019-06-13T10:22:58,42.805,6.029,CST-1368DR,9073,12698,15537,0.020,551
2019-06-13T10:26:00,42.805,6.029,CST-1368DR,9073,12697,15535,0.021,551
2019-06-13T10:29:01,42.805,6.029,CST-1368DR,9073,12697,15535,0.021,551
2019-06-13T10:32:03,42.805,6.029,CST-1368DR,9073,12698,15536,0.021,551
2019-06-13T10:35:04,42.805,6.029,CST-1368DR,9073,12695,15534,0.021,550
2019-06-13T10:38:05,42.805,6.029,CST-1368DR,9073,12697,15535,0.021,550
2019-06-13T10:41:07,42.805,6.029,CST-1368DR,9073,12696,15535,0.021,551
2019-06-13T10:44:08,42.805,6.029,CST-1368DR,9073,12697,15535,0.021,551
2019-06-13T10:47:10,42.805,6.029,CST-1368DR,9073,12697,15536,0.021,551
2019-06-13T10:50:11,42.805,6.029,CST-1368DR,9073,12696,15535,0.021,551
2019-06-13T10:53:12,42.805,6.029,CST-1368DR,9073,12696,15534,0.021,551
2019-06-13T10:56:14,42.805,6.029,CST-1368DR,9073,12696,15535,0.021,551
2019-06-13T10:59:15,42.805,6.029,CST-1368DR,9073,12695,15533,0.021,551
2019-06-13T11:02:17,42.805,6.029,CST-1368DR,9073,12696,15534,0.021,551
2019-06-13T11:05:18,42.805,6.029,CST-1368DR,9073,12695,15534,0.021,551
2019-06-13T11:08:20,42.805,6.029,CST-1368DR,9073,12696,15534,0.021,551
2019-06-13T11:11:21,42.805,6.029,CST-1368DR,9073,12697,15535,0.021,551
2019-06-13T11:14:22,42.805,6.029,CST-1368DR,9073,12696,15534,0.021,551
2019-06-13T11:17:24,42.805,6.029,CST-1368DR,9072,12696,15536,0.021,550
2019-06-13T11:20:25,42.805,6.029,CST-1368DR,9072,12696,15537,0.020,551
2019-06-13T11:23:27,42.805,6.029,CST-1368DR,9072,12695,15535,0.021,551
2019-06-13T11:26:28,42.805,6.029,CST-1368DR,9073,12695,15533,0.021,551
2019-06-13T11:29:29,42.805,6.029,CST-1368DR,9072,12696,15537,0.020,551
2019-06-13T11:32:31,42.805,6.029,CST-1368DR,9072,12694,15534,0.021,551
2019-06-13T11:35:32,42.805,6.029,CST-1368DR,9072,12694,15533,0.021,551
2019-06-13T11:38:34,42.805,6.029,CST-1368DR,9072,12695,15535,0.021,551
2019-06-13T11:41:35,42.805,6.029,CST-1368DR,9072,12696,15536,0.021,550
2019-06-13T11:44:36,42.805,6.029,CST-1368DR,9072,12696,15536,0.021,550
2019-06-13T11:47:38,42.805,6.029,CST-1368DR,9072,12695,15534,0.021,551
2019-06-13T11:50:39,42.805,6.029,CST-1368DR,9072,12695,15535,0.021,551
2019-06-13T11:53:41,42.805,6.029,CST-1368DR,9072,12694,15533,0.021,551
2019-06-13T11:56:42,42.805,6.029,CST-1368DR,9072,12695,15535,0.021,551
2019-06-13T11:59:43,42.805,6.029,CST-1368DR,9072,12694,15533,0.021,551
2019-06-13T12:02:45,42.805,6.029,CST-1368DR,9072,12694,15534,0.021,551
2019-06-13T12:05:46,42.805,6.029,CST-1368DR,9072,12695,15535,0.021,551
2019-06-13T12:08:48,42.805,6.029,CST-1368DR,9072,12695,15534,0.021,551
2019-06-13T12:11:49,42.805,6.029,CST-1368DR,9072,12694,15533,0.021,551
2019-06-13T12:14:51,42.805,6.029,CST-1368DR,9072,12694,15534,0.021,551
2019-06-13T12:17:52,42.805,6.029,CST-1368DR,9072,12694,15534,0.021,551
2019-06-13T12:20:53,42.805,6.029,CST-1368DR,9072,12695,15535,0.021,551
2019-06-13T12:23:55,42.805,6.029,CST-1368DR,9072,12695,15535,0.021,551
2019-06-13T12:26:56,42.805,6.029,CST-1368DR,9072,12694,15534,0.021,551
2019-06-13T12:29:58,42.805,6.029,CST-1368DR,9072,12694,15534,0.021,551
2019-06-13T12:32:59,42.805,6.029,CST-1368DR,9072,12695,15534,0.021,551
2019-06-13T12:36:00,42.805,6.029,CST-1368DR,9072,12694,15533,0.021,551
2019-06-13T12:39:02,42.805,6.029,CST-1368DR,9072,12694,15533,0.021,550
2019-06-13T12:42:03,42.805,6.029,CST-1368DR,9072,12695,15535,0.021,551
2019-06-13T12:45:05,42.805,6.029,CST-1368DR,9072,12695,15534,0.021,551
2019-06-13T12:48:06,42.805,6.029,CST-1368DR,9072,12694,15534,0.021,551
2019-06-13T12:51:07,42.805,6.029,CST-1368DR,9072,12694,15534,0.021,551
2019-06-13T12:54:09,42.805,6.029,CST-1368DR,9072,12693,15533,0.021,551
2019-06-13T12:57:10,42.805,6.029,CST-1368DR,9072,12695,15535,0.021,551
2019-06-13T13:00:12,42.805,6.029,CST-1368DR,9072,12695,15535,0.021,551
2019-06-13T13:03:13,42.805,6.029,CST-1368DR,9072,12694,15534,0.021,551
2019-06-13T13:06:14,42.805,6.029,CST-1368DR,9072,12695,15535,0.021,551
2019-06-13T13:09:16,42.805,6.029,CST-1368DR,9072,12694,15533,0.021,551
2019-06-13T13:12:17,42.805,6.029,CST-1368DR,9072,12694,15534,0.021,551
2019-06-13T13:15:19,42.805,6.029,CST-1368DR,9072,12693,15533,0.021,551
2019-06-13T13:18:20,42.805,6.029,CST-1368DR,9072,12695,15534,0.021,551
2019-06-13T13:21:22,42.805,6.029,CST-1368DR,9072,12695,15534,0.021,551
2019-06-13T13:24:23,42.805,6.029,CST-1368DR,9071,12694,15535,0.021,551
2019-06-13T13:27:24,42.805,6.029,CST-1368DR,9071,12693,15534,0.021,551
2019-06-13T13:30:26,42.805,6.029,CST-1368DR,9071,12694,15535,0.021,551
2019-06-13T13:33:27,42.805,6.029,CST-1368DR,9071,12694,15536,0.021,551
2019-06-13T13:36:29,42.805,6.029,CST-1368DR,9071,12694,15535,0.021,551
2019-06-13T13:39:30,42.805,6.029,CST-1368DR,9071,12694,15536,0.021,551
2019-06-13T13:42:31,42.805,6.029,CST-1368DR,9071,12694,15535,0.021,551
2019-06-13T13:45:33,42.805,6.029,CST-1368DR,9071,12694,15535,0.021,551
2019-06-13T13:48:34,42.805,6.029,CST-1368DR,9071,12694,15536,0.021,550
2019-06-13T13:51:36,42.805,6.029,CST-1368DR,9071,12693,15533,0.021,551
2019-06-13T13:54:37,42.805,6.029,CST-1368DR,9071,12691,15531,0.022,551
2019-06-13T13:57:38,42.805,6.029,CST-1368DR,9071,12694,15535,0.021,551
2019-06-13T14:00:40,42.805,6.029,CST-1368DR,9071,12693,15534,0.021,550
2019-06-13T14:03:41,42.805,6.029,CST-1368DR,9071,12694,15535,0.021,551
2019-06-13T14:06:43,42.805,6.029,CST-1368DR,9071,12695,15536,0.021,551
2019-06-13T14:09:44,42.805,6.029,CST-1368DR,9071,12694,15535,0.021,551
2019-06-13T14:12:45,42.805,6.029,CST-1368DR,9071,12694,15536,0.021,551
2019-06-13T14:15:47,42.805,6.029,CST-1368DR,9071,12694,15535,0.021,550
2019-06-13T14:18:48,42.805,6.029,CST-1368DR,9071,12694,15535,0.021,551
2019-06-13T14:21:50,42.805,6.029,CST-1368DR,9071,12693,15534,0.021,551
2019-06-13T14:24:51,42.805,6.029,CST-1368DR,9071,12694,15535,0.021,551
2019-06-13T14:27:53,42.805,6.029,CST-1368DR,9071,12694,15535,0.021,551
2019-06-13T14:30:54,42.805,6.029,CST-1368DR,9071,12693,15534,0.021,551
2019-06-13T14:33:55,42.805,6.029,CST-1368DR,9071,12694,15535,0.021,550
2019-06-13T14:36:57,42.805,6.029,CST-1368DR,9071,12694,15535,0.021,551
2019-06-13T14:39:58,42.805,6.029,CST-1368DR,9071,12694,15535,0.021,551
2019-06-13T14:43:00,42.805,6.029,CST-1368DR,9071,12695,15536,0.021,551
2019-06-13T14:46:01,42.805,6.029,CST-1368DR,9071,12694,15535,0.021,551
2019-06-13T14:49:02,42.805,6.029,CST-1368DR,9071,12693,15533,0.021,551
2019-06-13T14:52:04,42.805,6.029,CST-1368DR,9071,12694,15535,0.021,551
2019-06-13T14:55:05,42.805,6.029,CST-1368DR,9071,12694,15536,0.021,551
2019-06-13T14:58:07,42.805,6.029,CST-1368DR,9071,12694,15536,0.021,551
2019-06-13T15:01:08,42.805,6.029,CST-1368DR,9071,12692,15533,0.021,551
2019-06-13T15:04:09,42.805,6.029,CST-1368DR,9071,12693,15533,0.021,551
2019-06-13T15:07:11,42.805,6.029,CST-1368DR,9071,12694,15535,0.021,551
2019-06-13T15:10:12,42.805,6.029,CST-1368DR,9071,12694,15536,0.021,551
2019-06-13T15:13:14,42.805,6.029,CST-1368DR,9070,12694,15536,0.021,551
2019-06-13T15:16:15,42.805,6.029,CST-1368DR,9070,12694,15536,0.021,551
2019-06-13T15:19:17,42.805,6.029,CST-1368DR,9070,12694,15537,0.020,551
2019-06-13T15:22:18,42.805,6.029,CST-1368DR,9070,12694,15537,0.020,551
2019-06-13T15:25:19,42.805,6.029,CST-1368DR,9070,12694,15536,0.021,551
2019-06-13T15:28:21,42.805,6.029,CST-1368DR,9070,12693,15536,0.021,551
2019-06-13T15:31:22,42.805,6.029,CST-1368DR,9070,12694,15536,0.021,551
2019-06-13T15:34:24,42.805,6.029,CST-1368DR,9070,12694,15537,0.020,551
2019-06-13T15:37:25,42.805,6.029,CST-1368DR,9070,12693,15536,0.021,551
2019-06-13T15:40:26,42.805,6.029,CST-1368DR,9070,12694,15537,0.020,550
2019-06-13T15:43:28,42.805,6.029,CST-1368DR,9070,12694,15537,0.020,551
2019-06-13T15:46:29,42.805,6.029,CST-1368DR,9070,12693,15536,0.021,551
2019-06-13T15:49:31,42.805,6.029,CST-1368DR,9070,12693,15536,0.021,551
2019-06-13T15:52:32,42.805,6.029,CST-1368DR,9070,12694,15537,0.020,551
2019-06-13T15:55:33,42.805,6.029,CST-1368DR,9070,12694,15537,0.020,551
2019-06-13T15:58:35,42.805,6.029,CST-1368DR,9070,12693,15536,0.021,551
2019-06-13T16:01:36,42.805,6.029,CST-1368DR,9070,12692,15534,0.021,551
2019-06-13T16:04:38,42.805,6.029,CST-1368DR,9070,12691,15533,0.021,551
2019-06-13T16:07:39,42.805,6.029,CST-1368DR,9070,12692,15534,0.021,551
2019-06-13T16:10:40,42.805,6.029,CST-1368DR,9070,12694,15537,0.020,551
2019-06-13T16:13:42,42.805,6.029,CST-1368DR,9070,12693,15536,0.021,551
2019-06-13T16:16:43,42.805,6.029,CST-1368DR,9070,12692,15535,0.021,551
2019-06-13T16:19:45,42.805,6.029,CST-1368DR,9070,12692,15535,0.021,550
2019-06-13T16:22:46,42.805,6.029,CST-1368DR,9070,12691,15534,0.021,550
2019-06-13T16:25:48,42.805,6.029,CST-1368DR,9070,12692,15534,0.021,551
2019-06-13T16:28:49,42.805,6.029,CST-1368DR,9070,12693,15536,0.021,551
2019-06-13T16:31:50,42.805,6.029,CST-1368DR,9070,12693,15536,0.021,551
2019-06-13T16:34:52,42.805,6.029,CST-1368DR,9070,12693,15536,0.021,551